| time (UTC) | temp F | wind direction | speed MPH | gust MPH | rain 1hr in | rain 24hr in | rain mn in | humidity % | barometer mb |
| 20260831030104 | 95 | 120 | 13.0 | 28.0 | 0.00 | 0.00 | 0.00 | 38 | 991.0 |
| 20260831024610 | 96 | 153 | 14.0 | 27.0 | 0.00 | 0.00 | 0.00 | 38 | 990.6 |
| 20260831023045 | 97 | 114 | 17.0 | 30.0 | 0.00 | 0.00 | 0.00 | 35 | 990.4 |
| 20260831021544 | 100 | 131 | 10.0 | 20.0 | 0.00 | 0.00 | 0.00 | 31 | 989.9 |
| 20260831020043 | 104 | 144 | 6.0 | 12.0 | 0.00 | 0.00 | 0.00 | 20 | 989.4 |
| 20260831014542 | 105 | 207 | 6.0 | 13.0 | 0.00 | 0.00 | 0.00 | 19 | 989.6 |
| 20260831013051 | 106 | 239 | 7.0 | 14.0 | 0.00 | 0.00 | 0.00 | 19 | 989.5 |
| 20260831011542 | 107 | 209 | 7.0 | 13.0 | 0.00 | 0.00 | 0.00 | 18 | 989.6 |
| 20260831010042 | 108 | 158 | 7.0 | 15.0 | 0.00 | 0.00 | 0.00 | 18 | 989.6 |
| 20260831004541 | 108 | 211 | 8.0 | 16.0 | 0.00 | 0.00 | 0.00 | 18 | 989.6 |
| 20260831003040 | 109 | 155 | 5.0 | 11.0 | 0.00 | 0.00 | 0.00 | 18 | 989.5 |
| 20260831001539 | 108 | 139 | 5.0 | 12.0 | 0.00 | 0.00 | 0.00 | 19 | 989.5 |
| 20260831000039 | 109 | 157 | 8.0 | 16.0 | 0.00 | 0.00 | 0.00 | 18 | 989.6 |
| 20260830234539 | 109 | 216 | 9.0 | 18.0 | 0.00 | 0.00 | 0.00 | 18 | 989.6 |
| 20260830233036 | 109 | 207 | 6.0 | 16.0 | 0.00 | 0.00 | 0.00 | 19 | 989.8 |
| 20260830231534 | 109 | 201 | 3.0 | 14.0 | 0.00 | 0.00 | 0.00 | 18 | 989.9 |
| 20260830230035 | 109 | 233 | 7.0 | 18.0 | 0.00 | 0.00 | 0.00 | 19 | 990.2 |
| 20260830224539 | 108 | 144 | 5.0 | 14.0 | 0.00 | 0.00 | 0.00 | 19 | 990.4 |
| 20260830223028 | 108 | 205 | 8.0 | 18.0 | 0.00 | 0.00 | 0.00 | 19 | 990.5 |
| 20260830221527 | 108 | 206 | 9.0 | 16.0 | 0.00 | 0.00 | 0.00 | 19 | 990.9 |
| 20260830220026 | 108 | 178 | 7.0 | 14.0 | 0.00 | 0.00 | 0.00 | 19 | 991.2 |
| 20260830214526 | 108 | 148 | 7.0 | 21.0 | 0.00 | 0.00 | 0.00 | 19 | 991.3 |
| 20260830213025 | 108 | 123 | 10.0 | 24.0 | 0.00 | 0.00 | 0.00 | 20 | 991.6 |
| 20260830211524 | 107 | 123 | 10.0 | 24.0 | 0.00 | 0.00 | 0.00 | 19 | 991.9 |
| 20260830210023 | 107 | 170 | 11.0 | 20.0 | 0.00 | 0.00 | 0.00 | 20 | 992.2 |
| 20260830204523 | 108 | 140 | 8.0 | 18.0 | 0.00 | 0.00 | 0.00 | 20 | 992.3 |
| 20260830203032 | 106 | 162 | 7.0 | 14.0 | 0.00 | 0.00 | 0.00 | 21 | 992.7 |
| 20260830201535 | 106 | 138 | 10.0 | 19.0 | 0.00 | 0.00 | 0.00 | 21 | 992.8 |
| 20260830200020 | 106 | 146 | 10.0 | 21.0 | 0.00 | 0.00 | 0.00 | 21 | 993.0 |
| 20260830194517 | 106 | 225 | 9.0 | 19.0 | 0.00 | 0.00 | 0.00 | 22 | 993.1 |
| 20260830193017 | 104 | 157 | 7.0 | 18.0 | 0.00 | 0.00 | 0.00 | 23 | 993.2 |
| 20260830191513 | 104 | 147 | 5.0 | 14.0 | 0.00 | 0.00 | 0.00 | 22 | 993.5 |
| 20260830190027 | 104 | 142 | 9.0 | 19.0 | 0.00 | 0.00 | 0.00 | 22 | 993.8 |
| 20260830184513 | 104 | 142 | 7.0 | 19.0 | 0.00 | 0.00 | 0.00 | 23 | 993.9 |
| 20260830183011 | 104 | 171 | 8.0 | 14.0 | 0.00 | 0.00 | 0.00 | 23 | 994.2 |
| 20260830181507 | 103 | 133 | 7.0 | 16.0 | 0.00 | 0.00 | 0.00 | 24 | 994.3 |
| 20260830180008 | 102 | 167 | 3.0 | 13.0 | 0.00 | 0.00 | 0.00 | 25 | 994.3 |
| 20260830174502 | 102 | 146 | 5.0 | 12.0 | 0.00 | 0.00 | 0.00 | 26 | 994.5 |
| 20260830173111 | 101 | 131 | 5.0 | 12.0 | 0.00 | 0.00 | 0.00 | 27 | 994.5 |
| 20260830171600 | 101 | 137 | 5.0 | 10.0 | 0.00 | 0.00 | 0.00 | 27 | 994.4 |
| 20260830170053 | 100 | 197 | 2.0 | 10.0 | 0.00 | 0.00 | 0.00 | 25 | 994.5 |
| 20260830164608 | 99 | 232 | 2.0 | 9.0 | 0.00 | 0.00 | 0.00 | 27 | 994.4 |
| 20260830163059 | 100 | 139 | 4.0 | 9.0 | 0.00 | 0.00 | 0.00 | 26 | 994.5 |
| 20260830161542 | 99 | 160 | 3.0 | 8.0 | 0.00 | 0.00 | 0.00 | 28 | 994.4 |
| 20260830160037 | 97 | 106 | 1.0 | 8.0 | 0.00 | 0.00 | 0.00 | 30 | 994.5 |
| 20260830154534 | 96 | 188 | 3.0 | 7.0 | 0.00 | 0.00 | 0.00 | 31 | 994.4 |
| 20260830153028 | 95 | 159 | 2.0 | 6.0 | 0.00 | 0.00 | 0.00 | 32 | 994.5 |
| 20260830151538 | 94 | 231 | 0.0 | 4.0 | 0.00 | 0.00 | 0.00 | 33 | 994.4 |
| 20260830150027 | 92 | 226 | 1.0 | 3.0 | 0.00 | 0.00 | 0.00 | 34 | 994.4 |
| 20260830144525 | 91 | 137 | 0.0 | 4.0 | 0.00 | 0.00 | 0.00 | 34 | 994.4 |
| 20260830143026 | 90 | 171 | 0.0 | 4.0 | 0.00 | 0.00 | 0.00 | 35 | 994.3 |
| 20260830141523 | 88 | 225 | 0.0 | 2.0 | 0.00 | 0.00 | 0.00 | 37 | 994.3 |
| 20260830140022 | 87 | 146 | 0.0 | 2.0 | 0.00 | 0.00 | 0.00 | 37 | 994.1 |
| 20260830134524 | 86 | 156 | 0.0 | 1.0 | 0.00 | 0.00 | 0.00 | 37 | 993.9 |
| 20260830133018 | 86 | 186 | 1.0 | 6.0 | 0.00 | 0.00 | 0.00 | 36 | 993.6 |
| 20260830131513 | 87 | 207 | 1.0 | 3.0 | 0.00 | 0.00 | 0.00 | 34 | 993.4 |
| 20260830130011 | 88 | 216 | 0.0 | 4.0 | 0.00 | 0.00 | 0.00 | 33 | 993.1 |
| 20260830124513 | 88 | 161 | 0.0 | 6.0 | 0.00 | 0.00 | 0.00 | 34 | 993.0 |
| 20260830123006 | 89 | 140 | 3.0 | 5.0 | 0.00 | 0.00 | 0.00 | 34 | 992.7 |
| 20260830121505 | 89 | 159 | 1.0 | 5.0 | 0.00 | 0.00 | 0.00 | 35 | 992.6 |
| 20260830120003 | 89 | 216 | 0.0 | 5.0 | 0.00 | 0.00 | 0.00 | 34 | 992.4 |
| 20260830114502 | 89 | 130 | 2.0 | 6.0 | 0.00 | 0.00 | 0.00 | 34 | 992.3 |
| 20260830111600 | 89 | 155 | 0.0 | 0.0 | 0.00 | 0.00 | 0.00 | 34 | 992.1 |
| 20260830110057 | 89 | 156 | 0.0 | 2.0 | 0.00 | 0.00 | 0.00 | 33 | 992.0 |
| 20260830104600 | 90 | 178 | 0.0 | 2.0 | 0.00 | 0.00 | 0.00 | 33 | 992.0 |
| 20260830103052 | 92 | 222 | 0.0 | 5.0 | 0.00 | 0.00 | 0.00 | 31 | 992.0 |
| 20260830101551 | 92 | 146 | 1.0 | 5.0 | 0.00 | 0.00 | 0.00 | 31 | 991.8 |
| 20260830100050 | 92 | 173 | 0.0 | 5.0 | 0.00 | 0.00 | 0.00 | 31 | 991.5 |
| 20260830094553 | 91 | 146 | 0.0 | 4.0 | 0.00 | 0.00 | 0.00 | 32 | 991.2 |
| 20260830093045 | 91 | 144 | 0.0 | 2.0 | 0.00 | 0.00 | 0.00 | 32 | 991.2 |
| 20260830091542 | 91 | 146 | 0.0 | 2.0 | 0.00 | 0.00 | 0.00 | 32 | 991.1 |
| 20260830090045 | 92 | 123 | 0.0 | 2.0 | 0.00 | 0.00 | 0.00 | 31 | 991.0 |
| 20260830084539 | 93 | 138 | 0.0 | 1.0 | 0.00 | 0.00 | 0.00 | 30 | 990.9 |
| 20260830083058 | 93 | 139 | 1.0 | 2.0 | 0.00 | 0.00 | 0.00 | 29 | 990.9 |
| 20260830081536 | 93 | 101 | 0.0 | 1.0 | 0.00 | 0.00 | 0.00 | 28 | 990.7 |
| 20260830080034 | 94 | 105 | 0.0 | 2.0 | 0.00 | 0.00 | 0.00 | 28 | 990.8 |
| 20260830074543 | 94 | 101 | 0.0 | 2.0 | 0.00 | 0.00 | 0.00 | 28 | 990.9 |
| 20260830073032 | 95 | 87 | 0.0 | 0.0 | 0.00 | 0.00 | 0.00 | 28 | 991.0 |
| 20260830071527 | 95 | 87 | 0.0 | 2.0 | 0.00 | 0.00 | 0.00 | 27 | 991.1 |
| 20260830070022 | 97 | 65 | 0.0 | 1.0 | 0.00 | 0.00 | 0.00 | 26 | 991.0 |
| 20260830064527 | 97 | 15 | 0.0 | 1.0 | 0.00 | 0.00 | 0.00 | 26 | 991.0 |
| 20260830063022 | 98 | 281 | 0.0 | 5.0 | 0.00 | 0.00 | 0.00 | 25 | 990.9 |
| 20260830061522 | 99 | 245 | 2.0 | 5.0 | 0.00 | 0.00 | 0.00 | 25 | 990.9 |
| 20260830060026 | 100 | 221 | 1.0 | 5.0 | 0.00 | 0.00 | 0.00 | 24 | 990.9 |
| 20260830054521 | 100 | 238 | 4.0 | 7.0 | 0.00 | 0.00 | 0.00 | 24 | 990.9 |
| 20260830053020 | 101 | 257 | 1.0 | 6.0 | 0.00 | 0.00 | 0.00 | 24 | 990.8 |
| 20260830051523 | 101 | 279 | 4.0 | 12.0 | 0.00 | 0.00 | 0.00 | 23 | 990.6 |
| 20260830050020 | 103 | 242 | 5.0 | 11.0 | 0.00 | 0.00 | 0.00 | 22 | 990.5 |
| 20260830044518 | 102 | 259 | 8.0 | 13.0 | 0.00 | 0.00 | 0.00 | 22 | 990.2 |
| 20260830043018 | 100 | 165 | 2.0 | 6.0 | 0.00 | 0.00 | 0.00 | 24 | 990.1 |
| 20260830041519 | 101 | 148 | 2.0 | 5.0 | 0.00 | 0.00 | 0.00 | 24 | 989.8 |
| 20260830040021 | 101 | 273 | 2.0 | 6.0 | 0.00 | 0.00 | 0.00 | 24 | 989.7 |
| 20260830034517 | 101 | 119 | 1.0 | 4.0 | 0.00 | 0.00 | 0.00 | 23 | 989.3 |
| 20260830033016 | 103 | 167 | 1.0 | 5.0 | 0.00 | 0.00 | 0.00 | 21 | 989.1 |
| 20260830031516 | 104 | 188 | 4.0 | 8.0 | 0.00 | 0.00 | 0.00 | 21 | 988.8 |